Home   Weather   Caracas   Past weeks

Flag for Venezuela Past Weather in Caracas, Venezuela — Yesterday and Last 2 Weeks

Now
79 °F

Passing clouds.


Feels Like: 82 °F
Forecast: 67 / 83 °F
Wind: No wind

Location: Caracas / Maiquetia Aerop. Intl. Simon Bolivar

Current Time: Aug 17, 2017 at 5:51:45 am

Latest Report: Aug 17, 2017 at 5:00 am


Visibility: N/A

Pressure: 29.86 "Hg (27.02 "Hg at 875m altitude)

Humidity: 79%

Dew Point: 72 °F

Location of CaracasLocation

Past Weather in Caracas — Graph

°F

Caracas Temperature Yesterday

Maximum temperature yesterday: 90 °F (at 12:00 pm)
Minimum temperature yesterday: 79 °F (at 1:00 am)
Average temperature yesterday: 83 °F

High & Low Weather Summary for the Past Weeks

 TemperatureHumidityPressure
High93 °F (Aug 8, 4:00 pm)94% (Aug 15, 12:00 am)30.07 "Hg (Aug 15, 12:00 am)
Low75 °F (Aug 4, 11:00 am)44% (Aug 6, 2:00 pm)29.80 "Hg (Aug 7, 5:00 pm)
Average84 °F69%29.88 "Hg
* Reported Aug 2 5:00 am — Aug 17 5:00 am, Caracas. Weather by CustomWeather, © 2017

Note: Actual official high and low records may vary slightly from our data, if they occured in-between our weather recording intervals... More about our weather records

Advertising

Caracas Weather History for the Previous 24 Hours

Scroll right to see more
 ConditionsComfort  
Time TempWeatherWind HumidityBarometerVisibility
5:00 am
Thu, Aug 17
79 °FPassing clouds.No wind79%29.86 "HgN/A
4:00 am79 °FPassing clouds.No wind84%29.89 "HgN/A
1:00 am79 °FPassing clouds.2 mph84%29.86 "HgN/A
12:00 am79 °FPassing clouds.5 mph84%29.86 "HgN/A
11:00 pm
Wed, Aug 16
81 °FPassing clouds.2 mph84%29.83 "HgN/A
10:00 pm81 °FPassing clouds.3 mph84%29.83 "HgN/A
9:00 pm82 °FPassing clouds.2 mph79%29.83 "HgN/A
8:00 pm82 °FPassing clouds.3 mph79%29.83 "HgN/A
7:00 pm84 °FPassing clouds.2 mph79%29.83 "HgN/A
6:00 pm86 °FScattered clouds.6 mph79%29.83 "HgN/A
5:00 pm86 °FScattered clouds.3 mph75%29.83 "HgN/A
4:00 pm86 °FScattered clouds.5 mph75%29.83 "HgN/A
3:00 pm86 °FScattered clouds.7 mph75%29.86 "HgN/A
2:00 pm86 °FScattered clouds.5 mph75%29.89 "HgN/A
1:00 pm90 °FHot.43 mph67%29.89 "HgN/A
12:27 pm90 °FHot.37 mph67%29.89 "HgN/A
12:00 pm90 °FHot.37 mph67%29.89 "HgN/A
11:00 am88 °FPassing clouds.6 mph70%29.89 "HgN/A
10:00 am86 °FPassing clouds.3 mph62%29.89 "HgN/A
9:00 am84 °FPassing clouds.3 mph66%29.89 "HgN/A
8:00 am81 °FPassing clouds.No wind74%29.89 "HgN/A
7:00 am81 °FPassing clouds.No wind79%29.89 "HgN/A
6:00 am79 °FPassing clouds.No wind79%29.89 "HgN/A
5:00 am79 °FPassing clouds.No wind79%29.89 "HgN/A
Weather by CustomWeather, © 2017

See weather overviewHow to use our weather pages